Vorticity
6 6 4 5 5 4 7 11 8 6 -0 1 3 4 11 3 8 9 -1 -2 6 16 20 16 7 4 5 5 7 5 5 8 7 18 17 17 13 8 16 16 15 14 7
9 11 12 13 12 10 10 16 7 10 3 -0 4 5 8 7 7 11 9 10 12 -0 21 -31 9 5 10 13 3 -0 6 6 21 21 10 10 10 10 17 16 14 12 14
9 8 10 9 7 11 10 17 9 11 5 3 2 6 5 6 13 5 8 25 -22 33 -10 13 -5 9 10 7 3 6 4 22 13 -1 13 -9 22 21 15 17 10 9 7
7 8 13 11 11 14 9 12 15 10 6 3 6 8 9 11 8 9 5 6 31 -23 10 13 -2 12 7 6 9 4 11 7 16 -0 -5 8 16 12 18 11 9 3 6
7 7 7 6 4 5 6 6 14 12 10 7 9 7 8 7 9 4 4 2 6 2 -1 8 8 6 7 8 8 7 13 4 -6 7 1 15 11 12 16 10 3 4 4
8 7 11 13 9 11 7 7 9 13 11 10 9 9 6 4 7 2 5 9 4 2 5 6 6 3 7 13 12 12 10 3 -6 9 27 3 8 21 5 12 8 7 6
8 6 5 9 11 12 12 17 16 5 4 7 9 6 3 4 7 0 7 6 3 5 6 10 8 9 3 12 7 8 3 13 15 12 6 8 13 16 10 18 15 6 9
16 14 12 15 16 9 11 10 7 7 12 10 5 7 3 7 11 6 1 2 6 7 13 7 11 9 8 10 3 7 11 -3 7 1 12 12 17 9 18 12 6 9 9
13 8 12 11 12 6 5 5 4 7 5 8 2 1 4 9 10 7 8 0 11 13 3 9 10 4 7 10 18 20 17 1 15 2 18 17 11 18 13 8 8 9 8
3 12 9 1 4 8 9 6 6 3 2 -1 7 -2 7 8 -0 10 13 17 5 16 4 12 7 10 -3 12 2 4 -2 19 12 9 19 17 13 15 9 7 9 7 6
9 14 9 14 1 -0 3 3 -3 1 2 -1 7 2 3 11 14 10 11 12 15 6 8 8 3 9 16 1 5 10 12 16 -1 20 13 13 15 12 5 8 8 7 6
1 -10 -14 3 3 4 0 8 5 -1 0 4 -3 12 18 14 5 12 6 15 13 6 0 13 10 4 9 4 3 -6 9 14 20 18 12 15 20 7 6 5 8 6 7
-10 -1 10 -3 28 -18 25 16 5 2 2 -2 -9 14 3 13 14 7 24 7 4 2 11 10 15 5 -7 7 -5 -0 20 27 19 11 17 20 9 8 6 7 9 5 5
13 3 13 8 17 17 4 12 28 10 18 18 23 30 7 3 18 11 1 4 2 7 11 11 16 -3 20 30 14 18 32 12 12 19 17 10 9 5 8 7 5 7 8
2 -8 13 11 14 -7 7 8 13 18 19 19 14 1 15 2 -6 12 8 11 10 6 11 6 13 14 14 11 24 24 10 13 20 12 12 9 7 8 10 7 9 8 9
25 33 -1 -8 24 4 -1 10 22 7 -16 -17 17 2 7 15 7 -8 17 7 10 0 9 7 12 2 22 31 15 7 15 18 12 13 11 11 11 9 8 9 8 11 12
19 52 23 4 16 20 -3 6 2 26 11 -6 1 10 3 8 6 11 7 16 11 7 7 12 9 35 19 9 11 16 6 10 14 12 11 11 8 9 7 9 11 8 10
3 19 24 19 6 4 -4 17 13 28 27 4 10 13 7 2 14 11 18 -1 6 8 16 18 24 15 7 16 8 13 15 15 12 10 9 9 8 7 12 8 7 9 16
13 4 15 28 18 19 25 18 16 12 13 11 5 7 3 24 11 8 2 6 11 20 25 21 11 11 11 11 12 12 13 14 11 10 7 7 10 7 6 8 18 28 25
11 24 14 18 20 19 20 9 13 16 13 8 7 12 9 -10 9 12 2 14 31 26 13 11 10 11 11 12 14 15 14 11 9 7 9 7 5 8 18 29 17 9 17
24 18 19 16 22 8 11 16 15 19 31 19 18 3 -5 7 2 20 27 27 17 10 2 7 12 13 16 17 17 12 9 7 9 7 5 7 19 25 12 11 19 18 20
-5 12 -20 10 -10 64 5 11 4 -3 4 14 16 14 12 12 44 29 12 8 6 10 11 10 14 17 19 17 10 8 9 7 5 9 20 21 11 13 19 20 18 16 16
8 7 13 34 15 15 6 13 12 9 10 11 15 29 37 16 5 7 10 8 8 11 14 17 20 19 12 9 9 5 5 13 21 17 11 13 16 22 21 19 18 17 16
2 17 3 15 14 12 11 10 9 10 31 44 24 5 2 10 12 11 9 8 14 16 19 19 14 10 8 5 5 14 21 17 10 11 17 20 21 19 18 18 18 19 18
5 -10 15 13 11 24 29 41 34 10 3 -4 -1 9 10 11 10 11 16 15 18 24 15 13 8 5 6 13 18 18 10 8 12 16 19 19 18 16 15 15 14 14 14
2 6 34 29 21 17 8 2 6 8 15 14 13 12 12 14 15 14 18 21 15 13 8 6 6 8 14 18 10 5 8 11 14 18 20 17 16 15 15 14 14 14 13
Height
5714 5718 5721 5724 5728 5731 5735 5738 5740 5738 5738 5738 5739 5741 5743 5743 5743 5742 5740 5737 5737 5734 5732 5731 5729 5727 5724 5720 5716 5712 5707 5703 5698 5690 5684 5676 5670 5664 5656 5651 5646 5642 5638
5700 5704 5708 5710 5713 5715 5719 5725 5726 5726 5726 5727 5729 5730 5732 5732 5732 5731 5730 5727 5725 5723 5721 5717 5718 5715 5712 5708 5704 5700 5695 5690 5685 5679 5670 5664 5658 5652 5645 5640 5635 5630 5626
5685 5690 5694 5697 5698 5702 5704 5710 5711 5712 5713 5715 5717 5718 5719 5721 5721 5720 5718 5716 5711 5711 5711 5708 5706 5704 5700 5697 5693 5688 5683 5678 5673 5668 5661 5654 5646 5640 5634 5628 5623 5618 5613
5671 5676 5681 5683 5686 5689 5690 5694 5696 5698 5700 5703 5705 5706 5707 5709 5709 5708 5707 5706 5702 5697 5698 5696 5696 5692 5689 5685 5682 5676 5671 5666 5661 5656 5650 5642 5636 5629 5623 5618 5612 5607 5601
5658 5663 5667 5670 5673 5676 5677 5680 5683 5686 5688 5690 5692 5693 5696 5697 5697 5696 5695 5693 5692 5689 5687 5687 5684 5681 5677 5674 5670 5664 5659 5654 5649 5643 5638 5631 5625 5618 5613 5608 5603 5597 5591
5644 5648 5653 5656 5659 5662 5665 5668 5671 5672 5675 5678 5680 5682 5683 5683 5684 5684 5683 5682 5680 5678 5676 5674 5671 5669 5665 5661 5656 5651 5647 5642 5635 5631 5624 5619 5613 5607 5602 5597 5592 5587 5581
5630 5635 5639 5643 5645 5647 5651 5655 5657 5661 5665 5667 5668 5670 5670 5671 5671 5672 5671 5669 5667 5665 5664 5661 5659 5656 5652 5649 5644 5640 5635 5629 5623 5618 5612 5606 5599 5594 5589 5585 5580 5575 5568
5616 5620 5623 5628 5632 5634 5638 5643 5647 5650 5653 5654 5655 5657 5657 5657 5657 5658 5658 5657 5655 5653 5651 5649 5646 5643 5639 5635 5631 5625 5621 5616 5611 5605 5599 5594 5588 5582 5577 5573 5568 5562 5556
5598 5603 5608 5613 5618 5622 5626 5631 5634 5637 5640 5642 5642 5644 5645 5644 5644 5645 5645 5644 5642 5640 5638 5635 5633 5629 5626 5622 5617 5612 5607 5603 5597 5592 5585 5581 5576 5571 5566 5561 5557 5553 5546
5582 5586 5592 5598 5603 5608 5612 5617 5621 5624 5627 5630 5631 5631 5631 5631 5631 5631 5630 5629 5628 5627 5625 5622 5620 5617 5613 5609 5604 5599 5594 5588 5583 5578 5573 5568 5564 5560 5556 5551 5547 5542 5537
5565 5572 5577 5583 5589 5593 5597 5603 5607 5611 5613 5615 5617 5617 5619 5619 5618 5618 5618 5617 5616 5614 5612 5610 5607 5603 5600 5596 5591 5585 5580 5575 5570 5565 5560 5557 5553 5550 5546 5541 5537 5534 5529
5549 5556 5563 5568 5574 5578 5583 5586 5591 5595 5598 5600 5602 5603 5604 5605 5606 5606 5605 5605 5604 5602 5601 5597 5593 5589 5585 5582 5577 5572 5567 5562 5557 5552 5548 5545 5542 5539 5535 5531 5528 5524 5519
5530 5538 5546 5553 5559 5563 5567 5571 5576 5580 5583 5585 5587 5590 5591 5592 5593 5594 5593 5592 5591 5590 5587 5582 5578 5575 5572 5568 5564 5559 5554 5549 5545 5541 5537 5534 5532 5529 5525 5521 5518 5514 5510
5511 5521 5529 5535 5542 5546 5552 5555 5560 5565 5568 5570 5572 5575 5575 5577 5580 5581 5580 5580 5579 5575 5572 5568 5563 5560 5556 5552 5549 5545 5540 5537 5533 5529 5526 5524 5522 5519 5515 5512 5509 5505 5501
5490 5501 5512 5519 5526 5532 5538 5541 5546 5552 5555 5557 5557 5560 5563 5565 5566 5566 5566 5566 5563 5559 5557 5554 5549 5545 5542 5539 5535 5531 5529 5526 5523 5519 5516 5514 5512 5509 5505 5502 5498 5495 5491
5469 5481 5494 5502 5509 5516 5523 5527 5533 5539 5543 5542 5542 5548 5550 5551 5553 5552 5552 5550 5548 5546 5543 5540 5537 5534 5530 5526 5523 5521 5519 5516 5513 5509 5507 5505 5502 5499 5495 5491 5487 5483 5479
5454 5463 5476 5485 5493 5501 5508 5513 5516 5523 5529 5531 5533 5536 5537 5538 5538 5538 5538 5536 5535 5532 5529 5526 5522 5520 5516 5514 5512 5510 5508 5505 5502 5500 5498 5495 5492 5489 5485 5481 5476 5471 5466
5442 5451 5461 5471 5479 5487 5493 5500 5504 5511 5516 5520 5521 5523 5525 5525 5525 5525 5525 5523 5521 5518 5515 5513 5510 5508 5506 5504 5502 5500 5498 5495 5492 5490 5488 5485 5482 5479 5474 5469 5464 5459 5454
5429 5439 5449 5457 5466 5473 5480 5486 5492 5497 5501 5505 5506 5509 5510 5512 5512 5511 5511 5510 5508 5506 5504 5502 5500 5498 5497 5494 5490 5489 5487 5485 5484 5481 5478 5475 5472 5468 5463 5458 5452 5447 5441
5419 5428 5437 5445 5452 5459 5465 5471 5477 5483 5487 5491 5493 5498 5497 5498 5499 5499 5499 5498 5495 5495 5493 5492 5490 5488 5486 5483 5481 5479 5478 5477 5475 5472 5469 5465 5461 5456 5452 5446 5441 5437 5432
5412 5421 5429 5435 5439 5445 5452 5459 5465 5470 5474 5477 5482 5485 5486 5487 5488 5487 5487 5486 5486 5486 5484 5483 5480 5479 5477 5475 5474 5473 5472 5470 5467 5464 5460 5456 5451 5446 5441 5437 5432 5428 5425
5406 5414 5421 5425 5429 5433 5441 5448 5453 5459 5463 5466 5470 5472 5474 5475 5476 5476 5477 5477 5476 5476 5475 5474 5472 5470 5468 5468 5467 5466 5464 5461 5458 5454 5449 5445 5440 5436 5431 5427 5424 5421 5419
5403 5410 5415 5418 5423 5427 5433 5440 5445 5449 5453 5457 5459 5461 5463 5464 5466 5468 5469 5469 5468 5467 5465 5464 5463 5462 5462 5462 5461 5459 5456 5453 5448 5444 5440 5436 5431 5427 5423 5420 5418 5416 5414
5396 5403 5408 5413 5417 5421 5426 5432 5437 5440 5443 5447 5449 5453 5455 5457 5459 5459 5460 5460 5459 5458 5458 5457 5457 5456 5456 5455 5454 5451 5447 5444 5440 5436 5432 5427 5424 5420 5417 5415 5413 5411 5410
5393 5398 5403 5408 5412 5417 5421 5425 5429 5433 5437 5441 5443 5445 5448 5450 5451 5451 5452 5452 5451 5451 5451 5452 5451 5452 5451 5449 5446 5443 5440 5436 5433 5429 5425 5421 5418 5416 5414 5412 5411 5409 5407
5390 5395 5399 5404 5408 5413 5417 5421 5425 5429 5433 5436 5438 5439 5441 5443 5443 5443 5444 5445 5446 5447 5448 5448 5448 5446 5445 5442 5440 5436 5433 5430 5427 5424 5420 5417 5415 5413 5412 5410 5408 5407 5405